Location: Dunedin
(45.8670°S, 170.5000°E)
Time: 18:50:56
(UTC+13:00)

SeaSat 1 - Pass Details

Date: 24 January 2019
Orbit: 744 x 748 km, 108.0° (Epoch: 20 February)

Event Time Altitude Azimuth Distance (km) Brightness Sun altitude
Rises 23:35:43 0° 147° (SSE) 3,224 6.1 -18.2°
Reaches altitude 10° 23:38:07 10° 140° (SE) 2,293 5.2 -18.4°
Maximum altitude 23:42:52 43° 68° (ENE) 1,059 2.8 -18.8°
Enters shadow 23:43:59 37° 35° (NE) 1,160 2.9 -18.9°
